Regional Weather Roundup
Issued by NWS Little Rock, AR

Home | Current Version | Previous Version | Graphics & Text | Print | Product List | Glossary On
Versions: 1 2 3 4 5 6 7 8 9 10 11 12 13 14 15 16 17 18 19 20 21 22 23 24 25 26 27 28 29 30 31 32 33 34 35 36 37 38 39 40 41 42 43 44 45 46 47 48 49 50
000
ASUS44 KLZK 241205
RWRLZK

WEATHER ROUNDUP FOR ARKANSAS
NATIONAL WEATHER SERVICE LITTLE ROCK AR
700 AM CDT THU JUL 24 2014

NOTE: "FAIR" INDICATES FEW OR NO CLOUDS BELOW 12,000 FEET WITH NO
SIGNIFICANT WEATHER AND/OR OBSTRUCTIONS TO VISIBILITY.

ARZ001-003-010-029-241300-
NORTHWEST ARKANSAS

CITY           SKY/WX    TMP DP  RH WIND       PRES   REMARKS
FAYETTEVILLE   CLOUDY    63  63 100 CALM      30.11R FOG
6HR MIN TEMP:  60; 6HR MAX TEMP:  65;

FORT SMITH     CLEAR     68  66  93 W3        30.06R
6HR MIN TEMP:  67; 6HR MAX TEMP:  70;

HARRISON       CLOUDY    69  68  96 E7        30.13R
6HR MIN TEMP:  69; 6HR MAX TEMP:  70;

BENTONVILLE    CLOUDY    70  66  88 E7        30.11R
6HR MIN TEMP:  64; 6HR MAX TEMP:  70;

ROGERS         CLOUDY    70  67  90 E8        30.11R
6HR MIN TEMP:  65; 6HR MAX TEMP:  70;

SILOAM SPGS    PTCLDY    64  57  77 E3        30.11R
6HR MIN TEMP:  64; 6HR MAX TEMP:  66;

HIGHFILL       CLOUDY    67  67 100 E5        30.10R
6HR MIN TEMP:  62; 6HR MAX TEMP:  68;

SPRINGDALE     CLOUDY    68  66  94 E10       30.12R
$$

ARZ004-005-016-241300-
NORTH CENTRAL ARKANSAS

CITY           SKY/WX    TMP DP  RH WIND       PRES   REMARKS
BATESVILLE     CLOUDY    70  64  83 N6        30.09R
6HR MIN TEMP:  66; 6HR MAX TEMP:  70;

FLIPPIN        CLOUDY    70  66  88 E3        30.12R
6HR MIN TEMP:  70; 6HR MAX TEMP:  72;

MTN HOME       CLOUDY    68  66  93 E6        30.10R
6HR MIN TEMP:  67; 6HR MAX TEMP:  68;

$$

ARZ040-041-241300-
WEST CENTRAL ARKANSAS

CITY           SKY/WX    TMP DP  RH WIND       PRES   REMARKS
MENA           CLEAR     64  64 100 CALM      30.08R
MOUNT IDA      CLEAR     64  63  96 CALM      30.07R FOG
6HR MIN TEMP:  63; 6HR MAX TEMP:  66;

$$

ARZ009-017-025-026-028-241300-
NORTHEAST ARKANSAS

CITY           SKY/WX    TMP DP  RH WIND       PRES   REMARKS
CORNING        FAIR      64  59  82 N6        30.09R
JONESBORO      CLEAR     68  58  70 NE8       30.06R
6HR MIN TEMP:  67; 6HR MAX TEMP:  74;

NEWPORT        MOCLDY    69  63  81 N10       30.08R
6HR MIN TEMP:  69; 6HR MAX TEMP:  73;

WALNUT RIDGE   CLEAR     66  57  72 N8        30.07R
6HR MIN TEMP:  66; 6HR MAX TEMP:  73;

BLYTHEVILLE    SUNNY     65  62  90 N12       30.05R
6HR MIN TEMP:  64; 6HR MAX TEMP:  73;

$$

ARZ022-023-033-042-044-241300-
CENTRAL ARKANSAS

CITY           SKY/WX    TMP DP  RH WIND       PRES   REMARKS
LITTLE ROCK    CLOUDY    71  67  87 N5        30.06R
6HR MIN TEMP:  69; 6HR MAX TEMP:  71;

N LITTLE ROCK    N/A     69  69 100 N7        30.06R
6HR MIN TEMP:  68; 6HR MAX TEMP:  69;

SEARCY         CLOUDY    71  69  93 N7        30.08R
6HR MIN TEMP:  67; 6HR MAX TEMP:  71;

HOT SPRINGS    MOCLDY    67  66  97 NW3       30.07R FOG
6HR MIN TEMP:  67; 6HR MAX TEMP:  71;

RUSSELLVILLE   CLOUDY    70  68  93 CALM      30.07S
6HR MIN TEMP:  69; 6HR MAX TEMP:  71;

CLINTON        CLOUDY    70  70 100 CALM      30.09R
$$

ARZ036-241300-
EAST ARKANSAS

CITY           SKY/WX    TMP DP  RH WIND       PRES   REMARKS
WEST MEMPHIS   MOCLDY    71  71 100 N5        30.03R
6HR MIN TEMP:  68; 6HR MAX TEMP:  71;

$$

ARZ050-053-066-070-073-241300-
SOUTHWEST ARKANSAS

CITY           SKY/WX    TMP DP  RH WIND       PRES   REMARKS
ARKADELPHIA    CLOUDY    69  69 100 CALM      30.07R FOG
6HR MIN TEMP:  68; 6HR MAX TEMP:  70;

CAMDEN         FOG       68  66  94 N5        30.05R VSB 1/2
TEXARKANA      FOG       68  68 100 CALM      30.07R VSB<1/4
6HR MIN TEMP:  68; 6HR MAX TEMP:  70;

EL DORADO      FOG       69  69 100 NW3       30.05R VSB 1/2
6HR MIN TEMP:  68; 6HR MAX TEMP:  69;

$$

ARZ056-057-069-241300-
SOUTHEAST ARKANSAS

CITY           SKY/WX    TMP DP  RH WIND       PRES   REMARKS
PINE BLUFF     CLEAR     69  68  96 CALM      30.05R FOG
6HR MIN TEMP:  67; 6HR MAX TEMP:  71;

STUTTGART      CLOUDY    70  68  94 N8        30.05R
6HR MIN TEMP:  68; 6HR MAX TEMP:  72;

MONTICELLO     CLEAR     71  69  93 CALM      30.03R FOG
6HR MIN TEMP:  70; 6HR MAX TEMP:  74;


$$




USA.gov is the U.S. government's official web portal to all federal, state and local government web resources and services.